Precipitable_Water
0.24 0.16 0.16 0.18 0.22 0.27 0.33 0.35 0.35 0.39 0.42 0.44 0.48 0.46 0.43 0.46 0.49 0.50 0.59 0.71 0.66 0.65 0.63 0.70 0.68 0.69 0.79 0.83 0.94 0.97 0.90 0.87 0.82 0.77 0.79 0.78 0.77 0.82 0.81 0.81 0.81 0.83 0.82 0.92 0.95 0.93 1.02 1.08 1.17 1.18 1.18 1.14 1.19 1.23 1.25 1.27 1.29 1.34 1.33 1.32 1.29 1.36 1.35 1.32 1.37 1.37 1.29 1.24 1.27 1.31 1.34 1.31 1.41 1.49 1.52 1.52 1.53 1.60 1.65 1.68 1.73 1.79 1.77 1.80 1.77 1.76
0.21 0.14 0.15 0.19 0.22 0.27 0.32 0.37 0.39 0.38 0.41 0.43 0.45 0.44 0.44 0.44 0.43 0.50 0.54 0.69 0.71 0.61 0.66 0.69 0.70 0.68 0.75 0.81 0.81 0.82 0.88 0.84 0.84 0.84 0.81 0.82 0.83 0.82 0.83 0.82 0.85 0.88 0.93 0.96 0.96 0.94 0.98 1.08 1.16 1.17 1.13 1.11 1.05 1.12 1.18 1.20 1.25 1.30 1.35 1.31 1.31 1.35 1.36 1.29 1.32 1.41 1.38 1.38 1.34 1.33 1.34 1.41 1.47 1.54 1.55 1.51 1.53 1.56 1.62 1.69 1.75 1.80 1.75 1.76 1.70 1.65
0.15 0.13 0.14 0.18 0.22 0.27 0.33 0.38 0.41 0.38 0.37 0.42 0.44 0.46 0.44 0.45 0.45 0.49 0.50 0.64 0.72 0.64 0.70 0.71 0.65 0.68 0.72 0.76 0.84 0.87 0.87 0.91 0.92 0.90 0.89 0.89 0.86 0.86 0.85 0.82 0.83 0.87 0.89 0.90 0.95 0.98 0.92 1.00 1.09 1.16 1.12 1.10 1.07 1.09 1.13 1.19 1.23 1.26 1.30 1.30 1.31 1.33 1.33 1.33 1.30 1.36 1.46 1.50 1.45 1.45 1.51 1.53 1.50 1.60 1.67 1.69 1.75 1.73 1.70 1.74 1.83 1.84 1.78 1.69 1.61 1.61
0.13 0.14 0.15 0.17 0.21 0.24 0.29 0.34 0.37 0.37 0.37 0.39 0.43 0.44 0.42 0.47 0.42 0.39 0.49 0.58 0.71 0.68 0.68 0.74 0.67 0.70 0.77 0.81 0.83 0.91 0.97 0.94 0.96 0.95 0.95 0.96 0.91 0.90 0.90 0.89 0.85 0.85 0.84 0.84 0.92 0.97 0.93 0.95 1.01 1.07 1.08 1.08 1.09 1.10 1.11 1.15 1.16 1.22 1.25 1.27 1.29 1.31 1.33 1.34 1.35 1.31 1.49 1.64 1.59 1.59 1.60 1.63 1.55 1.55 1.64 1.72 1.79 1.76 1.72 1.65 1.76 1.81 1.73 1.61 1.53 1.55
0.14 0.15 0.16 0.16 0.18 0.21 0.25 0.30 0.33 0.33 0.33 0.38 0.41 0.43 0.46 0.46 0.44 0.44 0.55 0.65 0.69 0.74 0.77 0.75 0.69 0.69 0.74 0.73 0.76 0.84 0.90 0.94 0.97 0.97 0.98 1.00 1.01 1.02 1.02 1.00 0.97 0.90 0.87 0.84 0.89 0.99 1.00 0.94 0.94 0.99 1.01 1.05 1.04 1.05 1.08 1.10 1.13 1.16 1.19 1.23 1.27 1.30 1.29 1.34 1.36 1.38 1.43 1.50 1.53 1.57 1.59 1.60 1.56 1.53 1.56 1.57 1.58 1.62 1.66 1.67 1.64 1.72 1.70 1.61 1.55 1.54
0.17 0.18 0.18 0.15 0.16 0.20 0.24 0.27 0.31 0.33 0.31 0.35 0.40 0.44 0.46 0.48 0.44 0.44 0.55 0.67 0.65 0.64 0.70 0.69 0.58 0.58 0.73 0.75 0.77 0.83 0.84 0.84 0.93 0.94 0.96 0.98 0.99 1.04 1.02 1.00 1.02 1.00 1.00 0.93 0.87 0.94 0.99 0.94 0.94 0.98 1.00 0.98 0.99 1.03 1.10 1.14 1.14 1.17 1.19 1.23 1.27 1.29 1.30 1.30 1.35 1.41 1.45 1.42 1.41 1.39 1.36 1.28 1.28 1.29 1.33 1.30 1.34 1.44 1.50 1.49 1.55 1.63 1.63 1.61 1.52 1.47
0.17 0.20 0.19 0.15 0.15 0.18 0.21 0.24 0.29 0.33 0.31 0.31 0.35 0.43 0.45 0.48 0.46 0.48 0.50 0.57 0.56 0.54 0.65 0.71 0.56 0.53 0.67 0.72 0.76 0.80 0.81 0.80 0.89 0.89 0.95 1.00 0.96 1.01 1.03 1.04 1.03 1.02 1.00 1.05 1.04 1.04 1.03 1.00 0.92 0.93 0.97 0.97 0.97 1.04 1.12 1.16 1.16 1.18 1.20 1.22 1.25 1.27 1.28 1.31 1.34 1.40 1.44 1.39 1.39 1.39 1.34 1.33 1.34 1.27 1.37 1.47 1.49 1.47 1.48 1.47 1.40 1.46 1.49 1.45 1.39 1.37
0.19 0.20 0.18 0.14 0.14 0.15 0.18 0.20 0.28 0.32 0.30 0.29 0.38 0.42 0.44 0.45 0.44 0.47 0.49 0.53 0.59 0.69 0.71 0.75 0.66 0.56 0.60 0.64 0.71 0.74 0.76 0.79 0.85 0.90 0.92 0.96 0.97 0.85 0.96 1.10 1.08 1.07 1.04 1.01 1.04 1.07 1.09 1.09 0.99 0.93 0.98 0.99 1.01 1.08 1.14 1.15 1.16 1.16 1.17 1.20 1.22 1.26 1.25 1.28 1.34 1.38 1.41 1.35 1.35 1.33 1.41 1.45 1.37 1.36 1.35 1.39 1.40 1.44 1.41 1.39 1.35 1.36 1.39 1.43 1.36 1.31
0.23 0.17 0.15 0.13 0.13 0.14 0.15 0.19 0.26 0.29 0.28 0.30 0.38 0.42 0.43 0.44 0.45 0.46 0.49 0.54 0.59 0.62 0.57 0.63 0.68 0.56 0.56 0.69 0.73 0.71 0.68 0.71 0.74 0.83 0.89 0.85 0.87 0.91 0.88 0.97 1.09 1.10 1.08 1.05 1.05 1.07 1.09 1.12 1.12 1.05 1.04 1.07 1.07 1.11 1.13 1.13 1.15 1.16 1.18 1.21 1.24 1.23 1.22 1.27 1.32 1.34 1.37 1.36 1.35 1.34 1.35 1.35 1.42 1.45 1.40 1.41 1.39 1.34 1.32 1.25 1.27 1.30 1.34 1.37 1.36 1.30
0.26 0.21 0.16 0.15 0.16 0.14 0.16 0.19 0.23 0.29 0.28 0.32 0.38 0.41 0.43 0.44 0.44 0.45 0.49 0.51 0.55 0.56 0.51 0.58 0.64 0.54 0.54 0.64 0.68 0.69 0.66 0.68 0.73 0.80 0.87 0.90 0.92 0.95 1.06 1.11 1.15 1.17 1.13 1.09 1.09 1.12 1.11 1.12 1.16 1.16 1.11 1.11 1.10 1.13 1.19 1.20 1.18 1.18 1.18 1.18 1.20 1.18 1.21 1.25 1.29 1.32 1.34 1.35 1.34 1.32 1.34 1.36 1.39 1.39 1.36 1.35 1.30 1.24 1.25 1.14 1.21 1.30 1.32 1.35 1.35 1.31
0.30 0.26 0.20 0.17 0.17 0.16 0.18 0.21 0.24 0.29 0.32 0.33 0.35 0.37 0.40 0.43 0.43 0.43 0.44 0.49 0.51 0.49 0.52 0.61 0.63 0.62 0.49 0.55 0.58 0.62 0.63 0.68 0.76 0.81 0.82 0.93 1.01 0.94 0.99 1.22 1.31 1.27 1.19 1.12 1.10 1.16 1.17 1.15 1.18 1.21 1.15 1.13 1.13 1.11 1.17 1.21 1.20 1.19 1.18 1.16 1.15 1.18 1.22 1.26 1.29 1.31 1.31 1.35 1.34 1.30 1.32 1.34 1.32 1.33 1.28 1.23 1.19 1.21 1.21 1.21 1.26 1.33 1.38 1.37 1.35 1.30
0.30 0.24 0.20 0.18 0.21 0.20 0.20 0.19 0.21 0.25 0.29 0.31 0.31 0.32 0.36 0.36 0.40 0.41 0.41 0.44 0.41 0.41 0.53 0.59 0.59 0.62 0.47 0.52 0.62 0.66 0.71 0.72 0.78 0.80 0.80 0.79 0.79 0.80 0.86 0.96 0.96 1.11 1.23 1.17 1.10 1.15 1.19 1.19 1.15 1.19 1.17 1.15 1.13 1.08 1.11 1.16 1.19 1.18 1.19 1.17 1.13 1.18 1.20 1.25 1.29 1.31 1.32 1.34 1.34 1.35 1.35 1.33 1.32 1.28 1.23 1.20 1.19 1.25 1.29 1.29 1.30 1.38 1.40 1.40 1.40 1.36
0.22 0.23 0.24 0.21 0.21 0.20 0.17 0.15 0.17 0.20 0.25 0.28 0.30 0.32 0.29 0.29 0.35 0.33 0.38 0.33 0.33 0.36 0.48 0.55 0.58 0.55 0.53 0.59 0.65 0.68 0.68 0.71 0.77 0.79 0.74 0.76 0.82 0.90 0.98 0.96 0.97 1.04 1.13 1.17 1.10 1.08 1.14 1.15 1.12 1.11 1.14 1.15 1.13 1.07 1.03 1.07 1.13 1.18 1.19 1.16 1.12 1.12 1.19 1.22 1.28 1.26 1.30 1.32 1.35 1.38 1.36 1.33 1.30 1.26 1.25 1.31 1.33 1.39 1.38 1.40 1.39 1.40 1.40 1.44 1.37 1.31
0.23 0.20 0.23 0.23 0.21 0.19 0.17 0.12 0.13 0.16 0.20 0.24 0.26 0.29 0.29 0.26 0.29 0.29 0.32 0.34 0.35 0.40 0.48 0.54 0.58 0.48 0.55 0.59 0.67 0.69 0.70 0.71 0.75 0.78 0.77 0.73 0.72 0.83 0.90 0.96 0.93 1.01 1.14 1.17 1.13 1.04 1.05 1.12 1.13 1.11 1.12 1.11 1.11 1.09 1.04 1.03 1.08 1.15 1.15 1.16 1.13 1.11 1.17 1.22 1.24 1.26 1.29 1.32 1.36 1.40 1.38 1.33 1.27 1.23 1.30 1.38 1.43 1.49 1.50 1.50 1.48 1.48 1.44 1.38 1.32 1.37
0.20 0.17 0.16 0.21 0.18 0.19 0.17 0.14 0.12 0.16 0.19 0.19 0.27 0.29 0.29 0.29 0.28 0.28 0.31 0.29 0.30 0.36 0.42 0.50 0.51 0.47 0.47 0.53 0.70 0.69 0.71 0.72 0.75 0.77 0.74 0.72 0.71 0.70 0.81 1.09 1.10 1.03 1.02 1.17 1.17 1.05 1.02 1.08 1.11 1.11 1.11 1.10 1.08 1.07 1.04 1.04 1.05 1.09 1.10 1.14 1.13 1.12 1.16 1.19 1.21 1.27 1.29 1.32 1.35 1.37 1.37 1.34 1.30 1.27 1.33 1.42 1.50 1.55 1.53 1.55 1.55 1.51 1.45 1.46 1.48 1.45
0.21 0.19 0.20 0.22 0.23 0.21 0.16 0.15 0.15 0.16 0.19 0.22 0.25 0.29 0.30 0.28 0.36 0.32 0.36 0.37 0.36 0.37 0.36 0.43 0.41 0.51 0.56 0.66 0.69 0.69 0.68 0.69 0.69 0.70 0.68 0.67 0.70 0.68 0.71 0.94 0.90 0.80 0.99 1.09 1.14 1.07 1.04 1.07 1.12 1.11 1.08 1.08 1.08 1.07 1.03 1.02 1.03 1.02 1.05 1.08 1.10 1.10 1.15 1.21 1.27 1.28 1.29 1.31 1.35 1.35 1.31 1.32 1.35 1.38 1.41 1.45 1.52 1.57 1.61 1.62 1.60 1.58 1.54 1.53 1.56 1.65
0.23 0.20 0.26 0.25 0.26 0.20 0.17 0.17 0.14 0.15 0.13 0.23 0.25 0.23 0.28 0.37 0.38 0.35 0.36 0.40 0.42 0.37 0.33 0.40 0.41 0.47 0.56 0.56 0.62 0.69 0.64 0.64 0.66 0.65 0.63 0.62 0.65 0.66 0.66 0.82 0.90 0.81 0.88 1.02 1.11 1.07 1.06 1.08 1.10 1.11 1.09 1.07 1.08 1.06 1.00 1.01 1.03 0.98 1.00 1.01 1.03 1.10 1.18 1.23 1.27 1.29 1.30 1.30 1.31 1.31 1.31 1.33 1.36 1.39 1.40 1.43 1.43 1.49 1.61 1.63 1.64 1.64 1.61 1.60 1.64 1.67
0.24 0.24 0.27 0.25 0.23 0.25 0.24 0.21 0.17 0.14 0.18 0.27 0.23 0.22 0.32 0.38 0.36 0.34 0.29 0.35 0.36 0.31 0.32 0.36 0.33 0.38 0.42 0.34 0.52 0.60 0.59 0.62 0.64 0.62 0.60 0.59 0.58 0.57 0.63 0.69 0.88 0.85 0.86 1.01 1.10 1.11 1.11 1.07 1.06 1.08 1.08 1.07 1.06 1.07 1.01 1.02 1.09 1.03 0.98 0.97 1.00 1.07 1.11 1.20 1.24 1.25 1.25 1.26 1.27 1.27 1.28 1.31 1.36 1.39 1.42 1.47 1.43 1.45 1.53 1.59 1.64 1.69 1.64 1.61 1.67 1.69
0.26 0.22 0.28 0.27 0.26 0.29 0.28 0.23 0.18 0.16 0.17 0.19 0.21 0.27 0.24 0.24 0.26 0.32 0.32 0.28 0.29 0.27 0.30 0.34 0.33 0.34 0.37 0.38 0.50 0.51 0.50 0.50 0.57 0.59 0.61 0.55 0.52 0.54 0.61 0.72 0.87 1.03 1.10 1.04 1.01 1.06 1.10 1.09 1.09 1.08 1.05 1.07 1.10 1.12 1.05 1.04 1.10 1.09 1.01 1.00 1.03 1.04 1.08 1.13 1.22 1.24 1.28 1.30 1.29 1.30 1.28 1.30 1.35 1.40 1.43 1.44 1.41 1.46 1.45 1.48 1.58 1.63 1.65 1.70 1.72 1.75
0.29 0.21 0.23 0.29 0.26 0.27 0.27 0.22 0.15 0.14 0.15 0.15 0.19 0.25 0.30 0.26 0.28 0.27 0.30 0.31 0.34 0.30 0.31 0.30 0.34 0.31 0.37 0.38 0.48 0.53 0.54 0.49 0.52 0.55 0.58 0.54 0.50 0.51 0.57 0.68 0.71 0.82 0.94 0.99 0.97 0.99 1.03 1.06 1.10 1.11 1.07 1.05 1.09 1.12 1.08 1.04 1.09 1.09 1.05 1.03 1.04 1.10 1.10 1.12 1.18 1.27 1.26 1.29 1.29 1.28 1.29 1.32 1.37 1.42 1.41 1.39 1.41 1.43 1.48 1.53 1.58 1.64 1.62 1.69 1.74 1.75
0.30 0.31 0.21 0.25 0.27 0.24 0.20 0.20 0.15 0.15 0.12 0.11 0.11 0.16 0.26 0.27 0.28 0.34 0.32 0.31 0.30 0.30 0.31 0.31 0.30 0.32 0.40 0.45 0.44 0.51 0.52 0.52 0.51 0.49 0.51 0.50 0.50 0.51 0.55 0.62 0.62 0.78 0.92 0.93 0.94 0.97 0.99 1.02 1.08 1.14 1.12 1.07 1.11 1.15 1.09 1.04 1.05 1.10 1.10 1.06 1.02 1.03 1.07 1.06 1.10 1.21 1.27 1.28 1.28 1.27 1.24 1.28 1.35 1.39 1.41 1.39 1.43 1.45 1.50 1.58 1.65 1.64 1.63 1.73 1.71 1.71
0.25 0.30 0.23 0.25 0.23 0.20 0.19 0.22 0.19 0.17 0.16 0.12 0.11 0.11 0.21 0.26 0.24 0.22 0.23 0.34 0.34 0.30 0.27 0.30 0.30 0.39 0.45 0.45 0.44 0.43 0.55 0.57 0.56 0.50 0.50 0.50 0.48 0.51 0.55 0.58 0.66 0.76 0.89 0.91 0.95 0.97 1.00 1.05 1.07 1.13 1.17 1.11 1.07 1.12 1.07 1.00 1.04 1.06 1.07 1.10 1.07 1.02 1.07 1.06 1.08 1.12 1.26 1.27 1.26 1.23 1.23 1.26 1.35 1.39 1.40 1.37 1.43 1.47 1.53 1.58 1.65 1.65 1.61 1.64 1.67 1.70
0.27 0.28 0.28 0.22 0.23 0.22 0.21 0.23 0.23 0.22 0.19 0.17 0.15 0.13 0.17 0.23 0.30 0.27 0.22 0.28 0.33 0.32 0.33 0.34 0.32 0.34 0.47 0.50 0.48 0.49 0.54 0.55 0.56 0.51 0.51 0.51 0.51 0.51 0.55 0.57 0.64 0.84 0.91 0.88 0.89 0.96 1.06 1.07 1.09 1.11 1.13 1.10 1.05 1.11 1.12 0.96 0.96 0.99 1.02 1.07 1.11 1.01 1.03 1.08 1.12 1.17 1.26 1.27 1.22 1.20 1.20 1.25 1.35 1.38 1.37 1.36 1.41 1.45 1.49 1.58 1.69 1.68 1.64 1.68 1.68 1.66
0.31 0.27 0.27 0.27 0.25 0.26 0.26 0.26 0.25 0.24 0.20 0.16 0.16 0.16 0.14 0.14 0.24 0.28 0.28 0.28 0.26 0.31 0.32 0.32 0.29 0.32 0.44 0.47 0.53 0.55 0.57 0.56 0.56 0.56 0.57 0.59 0.58 0.55 0.52 0.56 0.65 0.76 0.84 0.82 0.84 0.81 0.99 1.09 1.15 1.16 1.15 1.14 1.11 1.16 1.16 0.97 0.91 0.97 1.00 1.03 1.09 1.06 1.03 1.07 1.13 1.24 1.30 1.28 1.22 1.19 1.21 1.24 1.32 1.35 1.36 1.36 1.42 1.43 1.48 1.57 1.70 1.67 1.66 1.69 1.66 1.55
0.28 0.28 0.29 0.28 0.25 0.23 0.23 0.24 0.22 0.22 0.20 0.15 0.14 0.16 0.15 0.16 0.18 0.23 0.31 0.36 0.28 0.28 0.31 0.31 0.26 0.32 0.41 0.47 0.46 0.53 0.57 0.57 0.56 0.56 0.61 0.62 0.59 0.53 0.51 0.54 0.58 0.66 0.83 0.83 0.86 0.89 0.95 1.06 1.09 1.09 1.12 1.14 1.15 1.16 1.21 1.09 0.90 0.94 1.00 1.02 1.04 1.10 1.09 1.12 1.15 1.26 1.40 1.33 1.20 1.20 1.25 1.29 1.32 1.34 1.37 1.40 1.42 1.46 1.54 1.57 1.61 1.60 1.57 1.52 1.43 1.43
0.32 0.33 0.28 0.25 0.23 0.17 0.16 0.16 0.16 0.15 0.16 0.16 0.14 0.14 0.16 0.17 0.16 0.14 0.17 0.26 0.24 0.28 0.32 0.30 0.29 0.35 0.43 0.48 0.46 0.45 0.53 0.57 0.58 0.56 0.53 0.53 0.53 0.52 0.52 0.53 0.59 0.64 0.77 0.87 0.92 0.87 0.92 1.00 1.09 1.12 1.12 1.16 1.18 1.20 1.22 1.17 1.00 0.91 0.98 1.03 1.05 1.10 1.17 1.18 1.21 1.25 1.43 1.45 1.34 1.28 1.28 1.31 1.34 1.37 1.39 1.33 1.32 1.42 1.47 1.49 1.48 1.48 1.49 1.44 1.37 1.39
0.37 0.38 0.36 0.29 0.27 0.26 0.22 0.24 0.28 0.26 0.21 0.17 0.16 0.14 0.13 0.16 0.17 0.16 0.19 0.19 0.19 0.27 0.32 0.33 0.32 0.35 0.40 0.41 0.46 0.47 0.45 0.49 0.56 0.54 0.50 0.50 0.48 0.50 0.52 0.69 0.73 0.80 0.85 0.89 0.87 0.85 0.92 0.97 1.00 1.06 1.12 1.16 1.19 1.22 1.24 1.21 1.14 0.96 0.94 1.02 1.06 1.11 1.21 1.26 1.25 1.24 1.30 1.46 1.49 1.48 1.40 1.39 1.39 1.43 1.42 1.31 1.26 1.32 1.36 1.38 1.39 1.42 1.48 1.45 1.45 1.47
0.43 0.35 0.36 0.36 0.33 0.33 0.35 0.31 0.31 0.30 0.24 0.21 0.18 0.16 0.14 0.13 0.16 0.19 0.19 0.16 0.18 0.22 0.25 0.29 0.35 0.34 0.37 0.44 0.46 0.47 0.47 0.51 0.56 0.56 0.53 0.50 0.48 0.45 0.47 0.68 0.71 0.77 0.83 0.85 0.86 0.80 0.79 0.88 1.01 1.07 1.11 1.16 1.19 1.22 1.24 1.24 1.21 1.11 1.02 1.04 1.09 1.11 1.18 1.30 1.33 1.31 1.28 1.43 1.52 1.55 1.54 1.50 1.49 1.49 1.48 1.44 1.39 1.35 1.31 1.29 1.30 1.41 1.53 1.50 1.44 1.44
0.39 0.34 0.36 0.35 0.36 0.34 0.35 0.35 0.36 0.34 0.31 0.28 0.24 0.21 0.18 0.16 0.13 0.14 0.18 0.19 0.20 0.19 0.18 0.22 0.29 0.31 0.33 0.36 0.45 0.48 0.50 0.50 0.51 0.54 0.54 0.51 0.50 0.48 0.46 0.49 0.69 0.74 0.73 0.75 0.77 0.78 0.78 0.82 0.90 1.00 1.07 1.15 1.18 1.16 1.19 1.21 1.23 1.23 1.19 1.18 1.16 1.15 1.17 1.28 1.33 1.35 1.38 1.43 1.54 1.59 1.63 1.64 1.64 1.62 1.58 1.55 1.53 1.49 1.46 1.47 1.46 1.50 1.49 1.44 1.43 1.43
0.42 0.39 0.38 0.36 0.35 0.38 0.36 0.33 0.35 0.32 0.34 0.33 0.29 0.27 0.28 0.23 0.18 0.14 0.14 0.16 0.19 0.21 0.22 0.23 0.28 0.32 0.35 0.34 0.33 0.36 0.47 0.53 0.52 0.55 0.54 0.50 0.47 0.46 0.45 0.47 0.49 0.66 0.93 0.91 0.84 0.80 0.78 0.82 0.90 0.99 1.09 1.14 1.11 1.12 1.14 1.16 1.18 1.20 1.20 1.19 1.20 1.17 1.20 1.26 1.34 1.42 1.44 1.48 1.60 1.68 1.71 1.71 1.71 1.68 1.66 1.60 1.56 1.57 1.59 1.59 1.60 1.59 1.59 1.60 1.59 1.53
0.40 0.38 0.43 0.42 0.37 0.37 0.38 0.37 0.34 0.32 0.33 0.31 0.36 0.35 0.32 0.30 0.28 0.24 0.18 0.15 0.16 0.17 0.19 0.22 0.27 0.31 0.36 0.37 0.35 0.37 0.37 0.46 0.54 0.55 0.51 0.51 0.51 0.47 0.44 0.43 0.42 0.54 0.74 0.83 0.91 0.86 0.84 0.86 0.92 0.99 1.06 1.08 1.06 1.08 1.11 1.13 1.15 1.17 1.18 1.18 1.19 1.18 1.21 1.29 1.39 1.46 1.49 1.52 1.61 1.70 1.73 1.70 1.69 1.67 1.61 1.61 1.61 1.66 1.68 1.68 1.71 1.74 1.75 1.73 1.65 1.59
0.47 0.40 0.46 0.40 0.36 0.37 0.43 0.43 0.40 0.36 0.33 0.32 0.31 0.33 0.34 0.32 0.28 0.28 0.24 0.20 0.16 0.16 0.17 0.18 0.19 0.23 0.26 0.32 0.41 0.45 0.43 0.39 0.41 0.49 0.50 0.50 0.49 0.48 0.47 0.46 0.43 0.41 0.47 0.60 0.81 0.97 0.92 0.88 0.91 0.95 0.98 1.02 1.04 1.08 1.10 1.12 1.13 1.13 1.12 1.17 1.19 1.21 1.24 1.31 1.44 1.47 1.50 1.55 1.60 1.67 1.67 1.69 1.65 1.58 1.62 1.64 1.62 1.63 1.66 1.72 1.75 1.70 1.62 1.59 1.59 1.62
0.47 0.45 0.42 0.44 0.39 0.37 0.44 0.44 0.40 0.39 0.39 0.35 0.31 0.31 0.31 0.31 0.32 0.32 0.29 0.27 0.22 0.18 0.16 0.17 0.17 0.20 0.22 0.26 0.32 0.38 0.46 0.43 0.39 0.39 0.42 0.46 0.47 0.47 0.44 0.44 0.42 0.42 0.47 0.53 0.75 1.00 0.96 0.90 0.90 0.94 0.98 1.04 1.06 1.06 1.09 1.14 1.14 1.12 1.14 1.18 1.24 1.28 1.27 1.35 1.44 1.47 1.49 1.56 1.60 1.63 1.63 1.67 1.64 1.60 1.60 1.61 1.64 1.66 1.70 1.68 1.58 1.53 1.52 1.54 1.61 1.62
0.46 0.48 0.46 0.47 0.39 0.39 0.43 0.43 0.44 0.40 0.32 0.30 0.39 0.42 0.38 0.35 0.32 0.29 0.27 0.28 0.31 0.30 0.25 0.23 0.21 0.24 0.26 0.27 0.27 0.27 0.30 0.39 0.40 0.39 0.43 0.41 0.42 0.45 0.41 0.40 0.42 0.43 0.44 0.61 0.79 1.01 1.16 1.11 1.03 1.12 1.09 1.08 1.07 1.11 1.17 1.18 1.15 1.18 1.23 1.30 1.32 1.32 1.31 1.36 1.46 1.49 1.48 1.53 1.59 1.59 1.64 1.64 1.61 1.60 1.60 1.63 1.66 1.66 1.59 1.48 1.46 1.51 1.54 1.57 1.59 1.57
0.43 0.53 0.50 0.51 0.44 0.41 0.47 0.48 0.41 0.33 0.30 0.39 0.48 0.49 0.47 0.43 0.40 0.37 0.33 0.30 0.32 0.33 0.32 0.29 0.28 0.28 0.29 0.30 0.27 0.25 0.25 0.30 0.35 0.37 0.39 0.38 0.37 0.34 0.35 0.38 0.42 0.43 0.41 0.56 0.60 0.71 1.03 1.17 1.03 1.13 1.14 1.11 1.12 1.16 1.17 1.15 1.15 1.19 1.20 1.29 1.32 1.37 1.38 1.42 1.49 1.51 1.53 1.54 1.61 1.59 1.64 1.61 1.61 1.58 1.61 1.63 1.58 1.53 1.46 1.46 1.49 1.52 1.56 1.55 1.53 1.51
0.51 0.52 0.54 0.50 0.49 0.51 0.48 0.47 0.34 0.30 0.39 0.47 0.48 0.48 0.47 0.44 0.42 0.39 0.39 0.39 0.34 0.32 0.35 0.32 0.29 0.30 0.30 0.31 0.32 0.33 0.31 0.29 0.29 0.35 0.37 0.35 0.37 0.35 0.33 0.40 0.44 0.51 0.67 0.71 0.69 0.85 1.08 1.07 0.95 1.03 1.09 1.13 1.14 1.15 1.13 1.12 1.16 1.14 1.16 1.29 1.33 1.37 1.44 1.48 1.51 1.54 1.58 1.56 1.58 1.60 1.63 1.61 1.61 1.58 1.55 1.48 1.43 1.40 1.42 1.45 1.47 1.48 1.54 1.53 1.52 1.52
0.60 0.60 0.55 0.47 0.51 0.41 0.43 0.45 0.39 0.43 0.44 0.46 0.46 0.48 0.48 0.44 0.43 0.40 0.36 0.37 0.37 0.35 0.35 0.34 0.34 0.33 0.32 0.32 0.34 0.36 0.39 0.38 0.34 0.32 0.31 0.32 0.35 0.35 0.35 0.37 0.42 0.58 0.67 0.80 0.92 1.01 1.02 0.97 0.94 1.07 1.18 1.18 1.15 1.13 1.14 1.18 1.19 1.18 1.19 1.27 1.31 1.37 1.44 1.46 1.48 1.53 1.54 1.52 1.54 1.62 1.63 1.63 1.56 1.48 1.41 1.38 1.36 1.36 1.39 1.41 1.43 1.48 1.52 1.47 1.46 1.46
0.55 0.50 0.55 0.47 0.48 0.49 0.43 0.41 0.39 0.37 0.32 0.41 0.69 0.72 0.68 0.69 0.64 0.63 0.54 0.45 0.49 0.49 0.41 0.37 0.36 0.36 0.34 0.33 0.35 0.39 0.45 0.42 0.35 0.31 0.31 0.32 0.42 0.47 0.51 0.51 0.55 0.53 0.52 0.76 0.92 0.96 1.03 0.99 0.96 1.05 1.07 1.14 1.17 1.16 1.21 1.23 1.26 1.21 1.18 1.25 1.29 1.33 1.40 1.42 1.43 1.48 1.52 1.53 1.56 1.63 1.60 1.53 1.45 1.38 1.37 1.37 1.36 1.38 1.41 1.43 1.44 1.43 1.48 1.43 1.43 1.43
0.50 0.50 0.53 0.50 0.45 0.51 0.44 0.40 0.39 0.34 0.38 0.59 0.66 0.67 0.73 0.72 0.65 0.64 0.45 0.36 0.45 0.46 0.48 0.41 0.37 0.35 0.37 0.38 0.38 0.43 0.41 0.40 0.41 0.43 0.52 0.55 0.53 0.57 0.62 0.61 0.55 0.50 0.55 0.70 0.81 0.87 0.92 0.92 0.90 1.01 1.04 1.10 1.17 1.23 1.29 1.24 1.22 1.15 1.16 1.23 1.27 1.29 1.31 1.38 1.43 1.49 1.53 1.56 1.58 1.55 1.50 1.44 1.42 1.41 1.41 1.45 1.46 1.45 1.41 1.39 1.39 1.44 1.50 1.49 1.49 1.49
0.43 0.44 0.44 0.43 0.45 0.47 0.46 0.40 0.35 0.39 0.42 0.64 0.67 0.71 0.75 0.76 0.72 0.55 0.37 0.34 0.46 0.48 0.48 0.48 0.44 0.39 0.37 0.38 0.41 0.41 0.39 0.43 0.45 0.48 0.54 0.49 0.45 0.56 0.68 0.59 0.48 0.46 0.53 0.66 0.79 0.91 0.94 0.94 0.93 0.99 0.97 1.02 1.15 1.28 1.29 1.22 1.17 1.14 1.17 1.24 1.28 1.28 1.33 1.42 1.50 1.57 1.59 1.58 1.55 1.49 1.44 1.42 1.44 1.49 1.52 1.52 1.54 1.53 1.50 1.49 1.48 1.51 1.52 1.53 1.51 1.49
0.38 0.42 0.42 0.36 0.38 0.42 0.43 0.42 0.44 0.45 0.61 0.68 0.72 0.73 0.78 0.79 0.68 0.48 0.35 0.49 0.80 0.78 0.75 0.70 0.66 0.48 0.43 0.42 0.43 0.42 0.44 0.50 0.59 0.64 0.88 0.77 0.59 0.70 0.68 0.66 0.57 0.52 0.56 0.67 0.82 0.94 0.97 0.94 0.95 0.94 1.01 1.12 1.23 1.23 1.22 1.20 1.18 1.18 1.24 1.30 1.31 1.36 1.41 1.53 1.54 1.55 1.53 1.49 1.44 1.41 1.43 1.49 1.52 1.52 1.54 1.56 1.56 1.54 1.53 1.55 1.55 1.58 1.58 1.55 1.48 1.41
0.37 0.39 0.43 0.42 0.37 0.35 0.39 0.38 0.39 0.45 0.68 0.73 0.72 0.71 0.77 0.66 0.48 0.44 0.76 0.79 0.86 0.82 0.84 0.85 0.69 0.67 0.66 0.52 0.48 0.47 0.47 0.54 0.63 0.73 0.90 0.92 0.97 0.93 0.80 0.72 0.70 0.73 0.77 0.84 0.95 0.97 0.97 0.96 0.98 1.02 1.11 1.16 1.18 1.25 1.31 1.32 1.28 1.25 1.27 1.30 1.34 1.40 1.50 1.51 1.42 1.38 1.35 1.33 1.37 1.43 1.46 1.50 1.55 1.59 1.57 1.55 1.53 1.50 1.49 1.56 1.59 1.62 1.63 1.55 1.40 1.33
0.37 0.36 0.36 0.39 0.38 0.38 0.42 0.38 0.37 0.33 0.63 0.76 0.80 0.69 0.74 0.55 0.56 0.84 0.84 0.84 0.83 0.83 0.79 0.85 0.82 0.80 0.70 0.62 0.62 0.59 0.61 0.53 0.67 0.81 0.90 0.88 0.82 0.83 0.81 0.78 0.72 0.74 0.81 0.83 0.88 0.98 0.95 0.94 0.91 1.03 1.10 1.15 1.24 1.36 1.49 1.44 1.29 1.25 1.27 1.30 1.37 1.45 1.40 1.29 1.26 1.27 1.31 1.36 1.41 1.45 1.50 1.55 1.59 1.57 1.62 1.57 1.53 1.52 1.51 1.54 1.55 1.54 1.53 1.45 1.36 1.27
0.44 0.37 0.38 0.42 0.46 0.36 0.36 0.35 0.38 0.46 0.71 0.80 0.71 0.59 0.78 0.79 0.91 0.91 0.82 0.72 0.84 0.83 0.86 0.83 0.91 0.98 0.93 0.79 0.80 0.69 0.74 0.80 0.85 0.94 1.03 0.93 0.82 0.83 0.87 0.89 0.93 0.97 0.93 0.91 0.94 0.96 1.07 1.06 1.15 1.23 1.26 1.33 1.40 1.45 1.53 1.49 1.35 1.34 1.32 1.32 1.37 1.29 1.28 1.30 1.33 1.35 1.36 1.38 1.40 1.43 1.43 1.41 1.47 1.62 1.60 1.55 1.51 1.50 1.50 1.49 1.48 1.46 1.44 1.40 1.30 1.22
0.48 0.44 0.46 0.41 0.51 0.46 0.41 0.45 0.77 0.78 0.76 0.74 0.75 0.82 0.81 0.87 0.89 0.84 0.83 0.84 0.83 0.88 0.86 0.87 0.91 0.95 0.97 0.99 0.97 1.01 1.05 1.09 1.13 1.12 0.99 0.92 0.92 0.91 0.90 0.93 0.95 0.95 0.97 1.01 1.05 1.12 1.16 1.17 1.18 1.24 1.30 1.39 1.45 1.52 1.52 1.46 1.32 1.23 1.15 1.19 1.24 1.23 1.25 1.29 1.33 1.34 1.36 1.42 1.47 1.47 1.47 1.49 1.47 1.47 1.46 1.50 1.51 1.46 1.45 1.42 1.41 1.36 1.36 1.33 1.25 1.19
0.85 0.83 0.82 0.62 0.63 0.80 0.79 0.79 0.80 0.80 0.78 0.73 0.70 0.81 0.84 0.81 0.87 0.86 0.86 0.88 0.93 0.96 0.90 0.90 0.93 0.96 1.07 1.04 0.98 0.99 0.99 1.08 1.06 1.05 1.05 1.02 0.99 0.99 1.01 1.03 1.07 1.11 1.18 1.20 1.19 1.19 1.22 1.27 1.30 1.30 1.33 1.35 1.35 1.30 1.22 1.12 1.07 1.02 1.08 1.19 1.21 1.23 1.23 1.22 1.22 1.26 1.33 1.37 1.41 1.42 1.45 1.42 1.42 1.40 1.41 1.47 1.49 1.46 1.43 1.38 1.34 1.30 1.27 1.23 1.19 1.19
0.90 0.84 0.72 0.60 0.79 0.64 0.60 0.82 0.81 0.79 0.81 0.77 0.80 0.84 0.85 0.83 0.83 0.86 0.87 0.93 0.95 0.93 1.00 1.08 1.11 1.09 1.07 1.04 1.03 1.01 1.04 1.05 1.02 1.07 1.15 1.11 1.08 1.06 1.05 1.06 1.12 1.17 1.20 1.23 1.27 1.29 1.26 1.21 1.15 1.08 1.02 0.98 1.00 1.01 1.04 1.07 1.08 1.08 1.14 1.20 1.28 1.32 1.33 1.34 1.35 1.35 1.36 1.36 1.35 1.35 1.37 1.39 1.38 1.38 1.40 1.41 1.42 1.40 1.37 1.32 1.27 1.22 1.18 1.16 1.16 1.16
0.70 0.89 0.68 0.66 0.71 0.64 0.68 0.84 0.86 0.88 0.85 0.85 0.82 0.80 0.78 0.78 0.83 0.87 0.92 0.99 1.02 1.04 1.04 1.10 1.14 1.10 1.09 1.07 1.07 1.05 1.02 1.02 1.01 1.05 1.11 1.20 1.25 1.24 1.23 1.23 1.22 1.13 1.15 1.18 1.18 1.18 1.14 1.11 1.07 1.04 1.03 1.04 1.10 1.14 1.15 1.13 1.13 1.17 1.23 1.32 1.38 1.39 1.38 1.35 1.34 1.33 1.34 1.34 1.34 1.34 1.37 1.39 1.40 1.38 1.35 1.35 1.33 1.28 1.24 1.21 1.20 1.15 1.13 1.13 1.14 1.12
0.82 0.81 0.68 0.72 0.63 0.75 0.85 0.90 0.91 0.89 0.84 0.83 0.84 0.82 0.85 0.83 0.82 0.82 0.84 0.91 1.01 1.04 1.05 1.09 1.17 1.24 1.28 1.23 1.23 1.16 1.09 1.09 1.12 1.11 1.09 1.13 1.14 1.17 1.22 1.28 1.30 1.31 1.35 1.35 1.37 1.33 1.24 1.20 1.15 1.13 1.12 1.15 1.18 1.15 1.16 1.20 1.25 1.30 1.36 1.42 1.44 1.42 1.38 1.35 1.35 1.33 1.31 1.33 1.33 1.33 1.36 1.37 1.36 1.37 1.32 1.28 1.27 1.21 1.17 1.14 1.13 1.12 1.15 1.21 1.25 1.22
0.80 0.71 0.80 0.73 0.63 0.64 0.66 0.75 0.81 0.67 0.67 0.77 0.81 0.84 0.84 0.87 0.84 0.84 0.87 0.89 0.91 0.94 1.01 1.04 1.07 1.10 1.12 1.14 1.13 1.11 1.06 1.04 1.06 1.09 1.09 1.13 1.16 1.12 1.06 1.06 1.10 1.14 1.18 1.21 1.20 1.16 1.13 1.12 1.12 1.11 1.12 1.17 1.23 1.22 1.21 1.24 1.27 1.33 1.40 1.43 1.40 1.39 1.34 1.30 1.30 1.29 1.28 1.30 1.31 1.32 1.33 1.33 1.32 1.32 1.28 1.22 1.16 1.12 1.11 1.13 1.14 1.16 1.17 1.12 1.20 1.23
0.75 0.80 0.79 0.68 0.65 0.68 0.83 0.91 0.93 0.88 0.82 0.83 0.86 0.87 0.84 0.84 0.83 0.82 0.87 0.94 0.98 0.99 0.98 0.96 0.93 0.96 0.99 1.03 1.06 0.99 0.93 0.91 0.92 0.95 0.98 1.04 1.11 1.19 1.22 1.17 1.11 1.12 1.14 1.15 1.09 1.07 1.05 1.04 1.06 1.06 1.07 1.10 1.13 1.13 1.15 1.18 1.24 1.34 1.43 1.43 1.43 1.41 1.36 1.33 1.28 1.27 1.29 1.30 1.32 1.33 1.33 1.32 1.27 1.23 1.21 1.18 1.14 1.11 1.07 1.05 1.11 1.15 1.20 1.18 1.21 1.22
Wind_Speed
24 23 24 25 24 25 26 25 24 23 21 19 18 17 17 16 15 15 15 15 17 17 16 17 16 16 15 14 14 14 14 15 15 14 14 15 15 15 16 16 16 17 16 16 17 18 19 18 18 17 17 17 17 17 16 16 16 15 15 14 14 14 14 13 12 12 12 11 11 11 11 10 10 10 9 10 9 9 9 9 9 9 9 9 9 9
25 26 26 26 26 26 26 27 26 25 23 20 18 18 18 17 16 15 16 16 17 17 16 17 17 17 17 15 15 15 15 15 16 15 15 15 15 15 16 17 16 16 16 17 17 18 19 19 19 18 17 17 18 17 17 17 16 16 15 15 14 14 14 14 13 12 12 12 11 11 11 10 10 10 10 10 10 10 9 9 10 10 9 10 10 10
26 27 27 27 27 26 26 27 28 26 25 21 19 18 18 17 16 16 16 17 17 16 16 17 18 17 17 17 16 16 16 16 16 15 15 15 16 16 16 16 17 16 16 16 17 18 19 19 19 19 18 18 18 18 17 17 17 16 16 15 15 15 14 14 14 13 12 12 12 11 11 10 10 9 9 9 9 9 9 10 10 10 10 10 10 10
26 27 27 27 27 28 27 27 28 27 25 23 20 19 18 18 18 15 15 17 17 16 16 16 17 16 17 18 18 18 17 17 17 17 16 16 16 16 17 17 17 17 17 17 17 18 18 19 20 19 19 18 18 18 18 18 17 17 17 16 16 16 15 15 14 14 13 12 12 12 11 11 10 10 9 9 9 9 10 10 10 10 10 10 10 10
26 25 27 28 28 29 29 28 28 27 25 24 23 21 19 19 20 16 14 16 16 17 17 16 16 16 18 19 19 18 18 18 18 18 17 17 17 17 17 17 17 17 17 17 18 18 18 19 20 20 20 19 19 19 18 18 18 17 17 17 17 16 16 15 15 14 14 13 12 12 12 12 11 11 10 10 10 10 10 10 10 10 10 10 10 9
26 25 26 30 29 30 31 29 29 27 25 25 25 24 21 20 20 19 17 16 17 19 20 19 16 16 19 20 19 19 19 20 19 19 19 18 18 18 18 18 18 18 17 17 18 18 18 19 20 20 20 20 20 19 19 19 19 18 18 18 18 17 16 16 15 15 14 14 13 13 13 12 12 12 11 11 10 10 10 10 10 10 10 9 9 9
25 25 26 30 31 31 31 30 30 29 26 25 25 25 24 22 21 21 20 18 17 18 20 21 18 16 17 20 21 20 20 21 20 20 20 19 18 19 19 19 19 18 18 18 18 19 18 19 19 20 20 21 20 20 20 19 19 19 18 19 19 18 17 17 16 16 15 15 14 14 13 13 12 12 11 11 11 11 10 10 10 10 10 9 9 8
25 27 28 29 31 31 31 30 30 30 27 25 24 25 26 25 24 23 21 20 18 18 19 22 21 18 17 18 21 22 22 22 22 21 20 20 20 20 20 21 21 20 19 18 18 19 19 19 19 20 20 20 20 20 20 20 19 19 19 19 19 19 18 17 17 17 16 15 15 14 14 13 13 12 12 12 12 11 10 10 10 9 9 9 8 7
24 29 29 29 30 30 31 31 30 30 28 26 25 24 25 26 26 24 21 20 19 19 20 22 22 20 18 18 19 21 23 23 22 22 21 21 22 22 21 21 22 21 20 19 19 19 19 19 19 19 20 20 20 20 20 20 20 20 20 19 19 19 19 18 18 17 17 16 15 15 14 14 13 13 12 12 11 11 10 10 10 9 9 8 7 7
22 27 30 29 29 30 30 30 31 31 29 26 26 25 24 24 25 25 23 21 21 21 22 23 23 20 18 19 20 20 21 22 21 21 21 21 21 21 21 22 22 22 21 20 20 19 19 19 19 19 19 20 20 20 20 20 20 20 20 20 20 20 19 19 19 18 17 17 16 15 15 14 13 13 12 12 11 11 10 10 10 9 8 8 7 7
22 24 28 29 29 30 30 30 32 34 30 27 26 26 25 24 24 24 24 23 22 22 25 26 26 22 19 20 21 21 21 20 20 20 20 20 20 20 20 21 22 22 22 21 21 20 20 20 20 19 19 19 19 19 20 20 21 21 21 21 21 21 20 20 19 18 18 17 16 16 15 15 14 13 13 12 11 10 10 10 9 9 9 8 8 8
24 23 25 28 29 29 30 31 32 33 32 29 27 26 26 24 23 23 24 25 24 23 24 27 28 26 23 20 21 22 23 22 21 20 20 20 20 20 19 19 21 22 22 22 21 20 20 20 20 20 20 20 20 19 20 20 21 21 21 22 22 22 22 20 20 19 18 17 17 16 15 15 14 14 13 12 11 11 10 10 9 9 9 8 8 8
26 25 24 26 29 30 30 30 31 32 33 32 29 28 27 24 22 22 24 25 25 23 23 24 26 27 25 22 22 22 22 22 22 21 21 21 21 20 20 20 19 21 22 22 21 20 19 19 20 20 20 20 19 20 20 20 21 21 22 22 23 23 22 21 20 20 19 18 17 16 16 15 14 14 13 12 11 11 10 10 9 9 9 8 8 8
24 27 27 26 27 31 32 31 31 32 32 33 33 31 29 25 23 23 23 24 24 24 24 24 24 24 24 23 24 24 22 20 21 22 22 20 19 19 19 20 19 20 22 22 21 20 19 19 19 19 20 20 19 19 20 20 20 21 22 22 23 23 23 22 21 20 19 18 17 16 16 15 14 14 13 13 12 11 11 10 10 10 9 9 9 8
22 24 28 28 26 28 33 34 33 31 31 34 34 33 31 29 25 23 23 23 23 23 24 24 24 23 22 21 22 24 24 21 19 21 22 20 19 17 17 19 19 19 21 22 21 20 19 19 20 20 20 20 19 19 19 19 20 20 21 22 23 23 23 22 21 21 20 19 18 17 16 15 14 14 13 13 13 12 11 11 11 10 10 10 9 9
24 23 24 28 27 28 32 34 34 32 31 32 33 34 34 32 28 25 24 24 24 23 23 24 24 22 22 20 19 20 23 24 22 21 23 22 20 18 17 18 19 19 21 22 21 20 19 19 20 20 20 20 20 19 19 19 19 20 21 22 23 23 23 23 22 21 21 19 18 17 16 16 15 14 14 14 13 13 12 12 12 11 11 11 11 10
23 23 22 26 28 29 30 31 35 35 31 29 32 36 35 32 30 28 26 26 25 24 24 24 24 23 23 23 22 21 22 24 24 23 24 24 21 19 18 19 19 19 21 22 22 20 19 19 20 20 20 20 20 20 19 19 20 20 20 21 23 23 23 23 22 22 21 20 19 18 17 16 16 15 15 14 14 14 13 13 13 13 13 13 13 12
22 21 22 25 27 28 28 29 34 37 34 29 31 35 34 32 33 31 27 25 25 25 24 26 27 25 24 23 22 25 26 24 24 24 24 24 22 20 20 20 20 20 21 22 22 21 20 20 20 20 21 21 21 20 20 20 20 20 21 21 23 23 23 23 22 22 21 20 19 18 18 17 17 16 16 15 14 14 15 15 14 14 14 14 14 13
22 21 21 25 27 26 27 28 30 36 40 36 30 30 32 33 34 33 30 27 26 25 24 26 29 27 26 23 21 25 28 27 27 26 24 23 21 21 20 20 19 19 20 21 22 21 21 21 21 21 21 21 21 20 20 21 21 21 21 21 22 23 24 23 22 22 22 21 20 19 19 18 17 17 17 16 16 15 15 16 16 16 15 15 14 15
23 22 21 23 25 24 25 27 29 31 38 40 35 30 31 33 34 34 32 29 27 26 25 26 27 26 26 24 22 23 25 27 28 28 25 23 22 21 20 20 19 19 19 19 20 21 21 22 22 22 22 22 21 20 21 21 21 21 21 21 22 23 23 24 23 22 22 22 21 20 19 18 18 18 18 17 17 17 16 17 17 17 17 16 16 16
23 22 22 21 23 24 25 27 30 30 32 37 39 36 32 31 33 34 34 34 31 27 25 25 25 24 23 23 24 23 22 23 25 26 25 24 23 21 19 20 21 20 19 19 18 20 21 22 22 23 23 22 21 21 21 21 21 21 21 21 22 23 23 24 24 23 22 22 21 21 20 19 19 19 19 18 18 18 17 17 18 18 18 17 17 18
25 22 22 22 23 26 27 28 30 31 31 33 37 39 36 31 31 33 34 34 34 31 28 25 25 24 23 22 23 23 22 21 22 23 24 23 22 20 18 19 20 20 21 20 18 19 20 21 22 23 23 22 22 21 21 21 21 22 22 21 22 22 22 23 23 23 23 22 22 21 21 20 20 20 20 19 19 19 18 18 19 19 18 19 19 20
27 24 23 24 24 25 27 27 29 31 32 33 34 38 39 35 32 32 32 34 34 33 32 29 27 25 22 20 20 21 23 24 23 22 22 22 21 19 19 19 18 20 21 20 18 18 19 20 21 22 23 23 22 21 21 21 22 22 22 21 21 22 22 22 22 23 22 22 22 22 22 21 21 21 21 20 20 19 19 19 20 20 20 20 21 22
27 26 25 25 24 24 25 26 28 30 31 33 33 35 38 40 37 33 31 32 34 34 33 31 29 28 25 21 19 19 21 24 25 25 24 24 23 22 21 19 17 18 21 20 18 18 18 20 21 21 22 22 22 22 21 21 21 22 23 22 21 22 22 22 21 22 22 22 23 23 22 22 22 21 21 21 20 20 20 20 20 21 21 21 22 23
28 27 27 25 24 24 24 24 26 29 30 31 33 35 37 41 43 39 33 32 34 37 37 32 29 29 28 25 24 21 20 22 25 27 27 27 25 24 22 19 16 17 20 20 18 18 19 19 20 21 21 21 23 22 22 22 22 22 23 23 22 22 22 22 21 21 21 22 23 23 23 22 22 22 21 21 21 21 22 21 21 21 22 22 22 23
28 28 28 27 25 25 25 25 24 26 28 29 32 37 38 40 43 42 37 36 35 36 38 36 32 29 27 27 28 27 24 22 22 24 25 26 26 26 24 20 17 18 20 20 18 18 19 19 20 21 21 21 23 23 22 22 22 22 23 23 23 22 22 22 22 22 21 21 22 22 23 22 22 22 22 21 21 21 21 21 21 21 22 22 23 23
26 28 31 31 29 27 26 25 24 24 26 28 31 35 38 39 40 39 38 40 39 35 36 38 35 33 30 28 28 28 27 25 23 24 23 23 24 25 23 20 19 20 21 20 20 19 19 19 20 21 21 22 23 23 22 22 22 22 23 23 23 23 22 22 22 22 22 21 21 21 22 23 22 22 22 22 22 21 21 22 22 22 23 23 24 25
26 28 32 34 33 30 27 26 25 25 27 28 30 33 36 37 39 39 38 41 40 36 37 38 37 37 36 32 29 28 29 28 26 27 27 26 25 24 22 21 22 22 22 22 21 21 21 20 20 20 21 22 23 24 23 22 22 22 22 23 23 23 23 22 22 22 22 22 21 20 21 22 22 22 22 22 22 22 22 23 23 24 24 25 26 27
28 28 30 32 32 33 31 29 28 27 27 29 30 31 33 36 39 40 40 40 40 38 38 38 37 39 40 39 35 31 28 27 27 28 29 28 27 26 24 23 23 24 24 23 23 22 22 22 21 21 22 23 23 24 24 22 22 21 22 22 23 24 24 22 22 22 22 22 21 20 20 21 21 21 21 21 22 22 22 23 24 25 26 27 28 28
30 29 29 30 30 31 33 32 31 30 28 29 31 31 32 34 37 40 41 41 41 41 41 39 37 37 38 40 41 39 34 29 26 27 29 29 29 28 26 25 24 24 24 24 24 23 23 23 22 22 23 23 24 25 24 23 22 21 21 22 22 23 24 23 22 21 22 21 21 20 20 20 20 20 21 21 22 22 22 23 24 25 26 27 27 27
32 30 30 30 29 29 31 31 33 33 31 31 32 32 33 33 34 37 39 41 40 41 42 41 40 38 36 36 37 40 40 37 31 28 27 27 28 27 27 27 25 24 24 24 24 24 23 22 22 23 24 25 25 25 24 22 21 21 21 21 21 22 23 22 21 21 21 21 20 20 20 20 20 20 20 21 22 22 22 23 24 25 26 26 26 26
31 31 30 30 29 30 30 30 32 33 33 33 34 34 34 34 33 33 35 37 39 40 40 41 41 40 37 36 35 35 38 41 39 36 32 29 28 27 27 28 27 26 25 25 25 24 23 22 23 24 25 26 26 26 24 23 21 21 21 21 20 21 22 22 21 21 21 20 20 20 20 20 20 20 20 21 21 22 22 22 23 24 24 24 25 26
31 30 29 29 29 30 30 31 31 30 29 31 34 35 35 34 34 34 33 34 37 38 38 39 39 38 37 37 38 37 37 39 40 40 39 36 34 31 30 30 30 29 27 26 26 26 24 23 23 25 27 27 27 27 25 23 22 21 21 20 20 20 21 21 21 21 21 21 21 21 20 20 20 20 20 20 21 21 21 22 22 22 22 23 24 25
32 31 29 29 28 28 29 29 28 27 28 28 29 31 34 35 35 35 35 35 35 35 36 36 37 36 36 38 41 41 40 39 39 40 40 39 39 38 37 35 33 32 30 27 26 27 25 23 23 25 27 27 27 27 25 24 22 21 21 21 20 20 21 21 21 21 22 22 22 21 20 20 20 20 20 20 20 20 21 22 22 22 23 24 25 26
31 30 28 28 27 26 26 26 26 27 27 26 25 26 30 33 35 36 36 36 36 36 37 37 36 35 35 36 38 41 41 41 40 39 39 38 39 40 39 37 35 34 32 29 27 27 26 24 23 24 27 28 28 27 26 25 23 23 22 22 21 21 21 21 21 20 21 22 22 22 21 20 21 21 21 20 20 20 21 22 22 23 24 24 25 26
29 28 27 27 27 25 24 25 26 25 24 23 23 24 26 28 32 34 35 35 36 36 36 37 35 34 34 34 35 36 39 41 40 40 40 39 39 39 39 38 36 35 33 31 30 29 27 25 24 24 27 29 28 27 27 26 24 23 23 22 22 22 21 21 21 20 21 21 22 22 21 21 21 21 21 20 20 21 21 22 23 23 24 24 25 26
29 28 26 26 27 26 25 26 26 25 25 24 22 21 21 22 24 26 27 29 31 32 34 35 35 34 33 34 33 33 34 36 36 37 39 39 39 39 39 38 37 36 34 33 31 30 28 27 25 24 26 28 29 29 27 26 25 24 24 23 23 22 22 21 21 21 21 22 22 22 22 22 22 21 21 21 21 21 22 23 23 23 24 25 26 26
32 30 28 26 26 26 25 25 25 25 25 23 19 17 18 19 19 20 22 24 25 26 29 33 35 34 32 32 32 32 32 32 32 33 35 36 37 37 38 38 37 36 34 33 31 30 29 28 26 25 26 28 30 30 28 26 25 24 24 24 24 23 23 22 22 22 22 22 23 23 23 22 22 22 21 21 21 22 23 23 23 24 24 25 26 27
35 32 30 28 26 26 26 25 25 25 23 21 20 19 19 19 19 19 23 26 25 25 26 28 31 34 33 31 31 31 31 31 30 30 31 33 34 35 37 37 36 35 34 33 31 30 29 28 27 26 26 27 29 30 29 27 26 25 25 25 24 24 24 23 23 23 23 23 23 23 23 22 22 22 22 22 23 23 23 24 24 24 25 26 27 28
36 32 32 32 30 27 27 26 25 24 22 20 20 20 19 18 17 19 22 23 22 24 26 26 27 31 32 32 31 30 30 30 29 29 29 31 32 32 33 33 34 34 33 32 31 30 29 28 27 26 26 27 27 29 30 29 27 26 25 25 24 24 24 24 24 24 23 23 23 22 22 22 22 22 22 23 24 24 25 25 25 26 26 27 28 29
35 33 33 34 33 30 29 27 25 24 22 21 20 20 19 17 17 19 20 18 17 20 23 24 25 26 28 30 31 31 31 30 29 29 27 27 28 28 29 29 31 32 32 32 31 30 28 28 27 27 27 26 26 28 30 30 28 26 25 25 24 24 24 24 24 24 23 23 22 22 22 22 22 23 23 24 24 25 25 26 27 27 28 28 28 27
35 33 32 33 32 31 30 29 27 25 22 21 21 20 19 19 19 19 18 17 17 18 19 21 23 23 25 28 30 31 32 31 30 30 28 26 25 25 26 27 28 30 30 30 30 29 28 27 28 28 27 26 26 26 28 28 27 26 25 25 24 24 24 24 24 24 23 23 22 22 22 22 22 23 24 24 25 26 27 28 28 29 29 28 27 26
34 32 32 32 31 30 29 29 27 26 24 22 21 20 20 20 19 17 17 18 19 18 18 19 21 22 24 26 26 28 30 30 29 29 29 27 25 24 25 26 27 29 29 29 29 29 28 28 28 28 27 26 26 26 26 26 26 26 25 25 24 24 24 25 25 24 24 23 23 22 22 23 24 25 24 25 26 27 27 28 28 28 28 27 26 25
34 32 31 30 29 29 29 28 25 23 24 24 21 20 20 19 18 17 17 18 18 18 19 19 19 20 22 23 23 24 25 26 28 28 26 25 24 23 23 24 26 26 27 29 30 30 29 29 28 27 26 26 26 25 25 25 26 25 24 24 25 25 25 24 24 23 23 23 23 23 24 24 25 25 25 25 26 25 26 26 27 27 26 25 24 23
28 29 29 28 26 25 25 24 22 21 22 23 22 20 20 20 19 19 18 17 16 16 17 19 20 20 20 21 21 21 22 23 25 26 24 23 23 23 23 24 25 26 26 27 28 29 29 28 27 27 26 26 25 24 25 26 26 25 24 24 25 25 25 24 24 23 23 23 23 23 24 24 24 24 25 25 25 24 25 25 25 25 24 23 22 22
23 24 26 26 24 22 21 21 21 21 20 20 21 21 20 20 20 18 17 17 16 15 16 17 18 18 19 19 20 21 22 22 23 24 24 23 22 22 22 23 24 25 25 26 27 27 27 27 26 26 25 24 24 24 24 25 25 24 24 24 25 25 24 24 24 24 24 24 24 23 23 23 23 24 24 23 23 24 24 24 24 23 22 21 21 20
23 22 24 26 24 23 22 21 21 20 18 18 18 17 17 17 18 18 16 16 16 15 15 15 15 15 15 16 17 18 19 19 20 21 22 22 21 20 20 20 21 22 23 24 25 25 25 25 25 24 24 23 23 23 23 24 24 23 23 24 24 25 24 24 24 24 24 24 24 23 23 23 23 22 22 22 23 23 23 23 22 21 20 19 19 19
23 21 23 25 25 22 21 21 20 18 17 17 16 15 14 14 14 14 14 14 13 13 12 13 13 13 12 13 14 15 16 17 18 19 20 20 19 19 19 19 19 20 20 21 22 23 23 23 23 23 23 22 22 23 23 23 23 23 24 24 24 24 24 24 24 24 24 24 24 24 23 23 23 22 22 22 22 22 22 21 20 19 19 19 20 20
22 21 21 23 24 22 22 22 21 19 18 18 16 15 14 13 12 11 11 11 11 10 11 11 11 11 11 11 12 13 14 15 16 17 18 18 18 18 18 17 17 18 18 19 19 20 21 21 21 22 21 21 21 21 22 22 22 23 24 24 24 24 24 24 24 24 24 24 24 23 22 22 22 22 22 22 22 21 20 20 19 19 19 19 20 20
19 19 18 20 21 21 22 22 21 20 19 19 17 16 15 14 13 12 10 10 10 10 10 10 10 10 10 10 11 11 12 13 14 15 16 17 17 17 17 17 17 17 18 18 18 19 19 20 20 20 20 20 20 20 20 20 21 22 22 23 23 23 23 23 23 22 22 22 22 22 22 22 22 22 21 21 20 19 19 18 18 18 18 19 19 20
18 18 17 18 18 18 18 19 19 18 18 17 17 16 15 14 13 12 11 10 10 9 9 8 9 9 9 9 9 9 10 11 13 14 15 16 16 16 17 17 17 18 18 17 18 18 18 18 19 19 19 19 19 19 19 20 21 21 21 21 22 22 22 22 22 21 21 21 21 22 22 21 21 21 21 20 20 19 18 17 17 17 18 18 19 19
Wind_Direction
214 216 217 217 215 213 214 216 218 220 222 225 222 220 220 222 222 214 209 206 204 210 211 208 212 213 208 201 199 200 201 203 203 202 202 200 198 198 200 201 202 204 205 204 203 204 205 205 204 204 205 205 206 207 208 209 211 214 214 213 215 217 214 212 214 217 218 218 218 219 220 221 224 227 229 232 235 237 241 244 246 250 255 259 263 265
216 220 220 217 216 216 216 217 219 221 224 228 227 225 223 224 224 216 210 204 205 212 212 210 213 215 212 207 205 206 205 205 205 203 204 205 203 201 202 204 204 204 206 207 205 205 206 206 206 206 207 207 208 209 211 211 213 216 217 216 217 218 217 216 216 218 220 220 219 220 221 223 226 230 233 235 238 241 244 247 250 255 259 262 264 266
219 222 221 217 217 218 219 219 220 223 225 227 228 227 226 224 223 223 213 201 202 211 212 212 215 215 213 212 211 209 208 209 209 207 207 208 207 206 204 205 207 206 207 209 207 206 208 208 208 208 210 210 210 211 213 213 215 217 219 219 219 219 220 220 220 221 222 223 223 224 225 225 228 232 234 237 240 243 247 249 252 257 261 262 264 266
222 223 220 218 217 218 220 220 221 223 224 225 227 227 226 223 220 222 211 197 200 210 215 216 218 218 215 215 216 213 211 212 212 213 212 211 211 211 209 209 209 210 211 212 210 209 210 211 211 211 213 213 214 214 215 215 217 218 220 220 220 220 221 223 224 224 223 224 225 226 228 228 231 234 235 239 242 246 250 252 254 258 260 262 263 265
227 224 220 218 217 217 219 220 220 222 223 224 226 225 224 222 219 218 207 203 210 215 218 220 222 222 218 217 217 215 215 215 215 217 217 216 215 214 214 214 214 214 216 216 214 214 213 213 214 214 215 216 217 217 217 218 218 220 220 220 220 220 222 224 225 224 223 224 225 226 228 230 232 235 237 240 243 248 253 255 257 259 261 262 262 263
229 225 219 217 217 216 218 220 220 220 222 224 225 225 226 223 221 220 211 209 218 219 218 220 224 226 221 220 220 218 218 218 217 219 219 220 219 219 219 218 218 218 218 219 218 218 217 216 216 216 216 217 218 219 219 219 219 220 220 220 220 220 221 224 224 223 223 224 225 225 227 230 233 236 239 242 246 251 255 257 258 259 260 260 262 265
230 225 221 218 217 216 218 220 220 220 222 224 222 223 227 228 225 225 219 217 223 222 219 219 225 230 224 222 223 222 222 220 220 222 222 222 223 224 224 222 221 220 220 220 220 220 219 217 217 218 217 218 220 220 220 220 220 220 220 220 221 221 221 223 224 223 223 224 225 226 228 231 235 238 241 245 249 252 255 257 256 258 259 259 263 266
229 225 223 219 218 217 218 219 219 220 223 224 222 220 225 228 229 229 226 226 227 225 222 221 226 232 230 225 223 222 223 222 222 223 222 223 225 226 227 226 224 222 222 222 221 220 219 218 217 218 218 219 220 221 220 221 221 220 220 220 221 221 222 223 223 223 222 223 224 225 228 232 236 240 244 248 250 251 253 255 255 257 258 257 261 262
228 227 224 220 219 219 219 219 218 219 223 224 223 224 225 226 230 232 230 229 228 227 226 223 224 231 233 229 224 221 222 224 224 223 223 226 227 227 228 228 226 224 223 222 221 220 219 219 219 219 218 219 220 221 221 220 220 220 220 220 220 221 223 224 223 223 223 223 225 227 229 234 238 241 245 249 250 250 251 253 253 254 254 254 255 256
230 228 226 222 221 222 220 219 218 219 223 223 223 227 228 227 228 229 230 229 229 231 231 225 223 229 233 229 225 222 223 225 225 224 226 227 227 229 231 231 230 227 224 223 221 220 220 221 221 220 219 218 220 221 221 219 219 219 219 219 219 221 223 224 223 223 223 224 226 228 230 234 238 241 244 247 248 249 250 250 249 250 251 252 254 257
236 230 227 226 225 224 222 220 220 220 222 223 224 226 228 229 229 230 230 229 230 232 231 227 224 229 235 231 225 225 228 229 227 226 228 227 226 228 230 231 231 228 224 223 221 220 220 221 221 220 218 217 218 220 221 220 219 219 218 218 219 221 223 223 223 223 223 224 226 229 231 233 237 240 243 244 243 244 245 245 245 247 250 253 256 260
236 231 228 228 226 224 222 222 222 220 220 221 223 224 226 229 230 232 230 226 229 231 228 226 226 229 234 232 227 227 230 229 227 227 228 226 225 226 227 228 229 228 225 223 221 220 219 219 220 219 217 216 217 218 220 220 220 219 219 217 218 221 222 222 222 223 223 224 226 228 230 233 236 238 240 240 239 240 240 241 243 246 249 253 258 261
234 234 231 229 227 223 222 222 221 219 217 218 220 222 224 225 226 229 227 224 229 232 229 226 228 231 234 233 232 230 229 226 224 225 226 225 225 225 225 225 226 226 225 222 221 219 218 219 219 219 218 216 217 217 219 220 219 219 219 218 218 220 221 221 222 222 222 223 225 227 229 231 234 235 236 236 238 239 240 241 242 245 248 253 258 260
233 235 231 228 227 224 221 221 219 217 215 216 217 218 222 223 223 226 226 226 229 231 229 228 231 235 234 233 232 228 226 225 222 221 224 227 227 224 222 223 226 226 225 222 220 218 218 218 218 219 218 218 218 218 218 219 219 219 219 218 218 219 220 221 221 222 222 223 224 226 227 230 231 232 233 234 237 239 241 242 242 244 248 252 256 258
232 234 229 226 226 224 222 222 221 219 218 218 217 219 223 224 224 227 226 227 231 232 230 228 230 233 232 231 230 226 223 224 223 220 220 225 229 227 223 223 226 227 225 224 221 218 217 216 216 218 218 218 219 218 218 220 219 219 219 217 216 217 219 219 220 221 221 222 223 224 226 228 229 230 231 234 237 239 241 243 244 245 248 252 255 258
234 238 232 225 226 225 223 222 221 221 222 220 217 219 224 222 224 230 231 231 234 235 232 230 230 233 232 231 227 225 224 224 227 225 221 225 231 232 228 224 226 229 227 225 222 219 219 217 216 217 217 217 217 218 219 220 219 219 219 217 216 217 218 218 219 220 221 221 222 224 225 226 228 229 231 234 237 240 242 244 245 248 250 254 258 261
235 240 233 225 224 225 224 222 220 221 222 219 217 221 223 221 225 231 235 236 236 236 235 232 233 233 232 229 225 225 226 224 226 227 224 228 232 231 229 227 227 228 227 225 223 221 220 219 217 217 216 216 216 217 219 220 219 219 219 218 217 217 218 218 218 219 220 221 222 224 225 226 228 230 231 234 237 240 244 246 248 250 253 255 259 263
236 240 233 225 225 224 223 223 222 222 222 219 219 221 221 222 226 230 234 234 234 237 236 233 234 231 230 229 225 227 228 223 224 226 225 229 231 229 230 230 228 228 227 224 222 222 221 221 219 217 217 216 216 216 218 219 220 221 220 219 218 219 218 218 219 220 221 222 223 225 225 226 229 231 233 236 240 243 245 247 250 253 255 257 260 263
234 239 233 227 228 225 221 222 223 222 223 224 224 221 219 221 223 224 229 230 232 236 236 235 235 233 232 231 225 229 230 225 224 225 224 228 230 227 226 227 227 227 227 224 222 223 223 222 221 219 218 217 216 216 218 219 220 221 221 220 220 220 220 219 219 221 222 223 225 226 226 228 230 233 235 239 243 245 246 249 252 253 256 258 261 264
232 236 235 229 226 223 220 222 223 221 221 224 226 223 220 223 223 223 227 230 232 235 235 236 236 235 235 232 226 230 230 226 225 224 224 229 231 227 224 224 225 225 225 224 223 224 223 222 222 220 218 218 218 217 217 219 220 220 221 220 220 221 221 221 220 221 223 225 226 228 228 229 232 235 238 241 244 246 248 251 252 254 256 258 261 265
229 232 234 228 221 221 223 224 223 222 220 220 223 222 220 221 223 225 227 228 230 234 235 236 237 235 234 231 228 228 227 226 227 223 223 226 227 226 226 225 224 224 226 227 226 226 224 223 223 221 220 219 218 218 218 219 220 220 221 221 220 220 221 222 222 223 225 226 228 229 229 231 233 236 240 242 245 247 249 252 253 255 257 258 263 266
226 229 231 227 221 224 228 227 224 225 223 221 221 222 221 220 221 224 226 226 227 232 235 236 239 237 233 231 229 226 226 227 225 220 218 218 219 223 227 227 223 222 226 228 229 230 226 224 224 223 221 219 218 219 218 219 221 221 222 222 221 220 221 222 223 224 226 227 228 229 230 233 235 238 241 244 247 248 250 253 255 257 259 260 264 267
225 228 230 229 228 228 230 229 227 226 227 226 224 223 223 223 221 222 225 225 227 232 233 235 239 237 230 228 228 226 228 228 222 217 214 213 216 222 229 233 225 219 222 224 229 233 228 224 224 223 221 219 219 221 220 220 222 223 223 222 222 222 222 223 224 224 226 227 228 229 231 234 236 239 242 244 247 248 251 254 257 258 259 263 266 270
222 227 229 230 232 233 230 230 230 227 226 227 226 224 223 224 224 225 227 227 228 231 231 233 237 235 230 229 227 223 227 227 222 219 217 218 222 226 232 234 225 219 220 222 228 234 230 225 224 224 223 222 222 223 222 222 223 224 223 222 223 223 222 223 224 224 224 226 228 229 231 234 237 239 242 244 247 250 252 256 259 259 260 265 269 273
220 225 226 227 229 229 226 227 228 226 225 226 227 225 224 224 225 227 228 227 229 230 230 233 237 235 232 233 230 225 225 226 224 222 222 225 229 230 233 232 227 225 222 221 230 234 229 226 226 226 226 224 224 224 224 223 223 224 224 223 223 224 223 223 224 224 223 224 227 229 231 233 236 239 241 244 248 252 254 256 260 262 264 266 270 273
221 223 223 225 226 225 225 226 227 225 225 226 227 227 226 225 225 226 226 227 230 231 230 232 236 234 232 231 230 229 225 221 221 221 223 227 228 229 231 230 228 226 220 221 231 234 231 231 229 228 229 226 224 224 225 225 224 225 225 223 223 225 225 224 225 225 223 223 226 228 230 233 236 239 241 244 248 252 253 255 259 263 266 268 270 273
226 224 223 226 229 229 229 229 228 226 225 226 227 228 227 226 225 226 226 228 230 231 231 233 236 235 233 230 229 228 224 221 222 224 228 232 229 226 226 226 225 224 221 223 230 232 234 235 231 229 229 226 223 222 224 226 226 225 224 222 222 224 225 225 225 225 225 225 226 227 230 234 237 240 243 246 249 252 254 256 260 264 268 270 271 274
228 229 225 226 229 232 233 231 228 227 229 229 227 227 228 227 226 226 228 229 230 231 233 233 234 235 235 233 231 229 226 226 227 228 233 235 231 228 229 227 225 224 223 224 227 230 233 234 231 229 228 224 221 220 223 226 227 226 225 222 221 222 225 226 225 225 226 227 228 229 231 235 239 242 245 247 250 253 256 259 262 266 269 272 273 274
226 230 228 226 227 230 234 235 232 230 232 233 231 228 228 228 228 229 230 230 230 232 235 234 233 235 235 234 234 233 231 230 229 230 234 234 231 233 236 232 228 226 226 225 225 227 229 230 229 229 226 222 220 219 222 226 227 227 225 222 221 221 224 225 225 225 226 228 229 231 232 236 240 243 245 248 252 256 259 262 264 267 270 272 274 276
225 228 227 228 230 230 231 235 235 235 235 234 233 232 229 229 230 232 233 233 232 234 236 236 235 235 235 235 236 236 236 235 232 230 232 232 232 235 236 234 231 230 231 230 226 225 226 227 228 228 225 220 219 220 222 224 225 224 223 222 221 221 222 224 225 225 226 228 230 232 233 236 240 243 247 250 254 258 262 264 267 270 272 274 275 277
223 227 226 229 234 234 231 232 234 235 236 235 234 233 232 231 231 232 234 235 234 235 236 236 237 237 236 236 237 236 235 235 234 230 228 228 230 232 233 235 236 235 235 235 229 224 224 226 228 228 222 219 218 219 220 221 222 221 221 221 219 219 220 222 224 224 226 228 230 231 233 237 241 244 248 253 256 261 265 267 270 273 275 277 278 279
221 225 226 227 232 234 233 232 234 235 237 238 237 235 234 233 233 234 234 234 235 236 236 236 237 237 236 236 236 235 234 234 234 234 233 232 231 230 232 237 240 239 238 238 233 225 222 226 229 227 221 218 217 218 219 219 219 219 219 219 218 217 218 221 223 224 226 228 230 231 234 239 242 245 250 255 259 264 267 269 272 275 277 279 281 282
220 223 224 225 230 232 231 233 235 236 237 238 237 236 236 235 235 235 235 235 235 236 237 238 238 239 238 237 237 237 235 234 234 235 237 237 236 236 237 239 241 240 240 240 237 229 225 227 231 227 221 217 217 218 218 218 218 218 218 218 217 217 219 221 223 224 226 229 231 234 237 241 244 247 253 259 263 266 269 270 273 277 279 282 284 286
217 220 223 224 228 231 230 230 233 234 235 236 236 237 238 237 237 238 238 236 236 237 238 240 241 241 239 238 238 238 237 236 235 236 238 238 239 240 241 239 238 239 240 239 237 234 230 230 232 227 220 217 218 219 219 218 219 218 218 219 220 221 222 223 225 225 227 231 233 236 239 242 245 249 255 260 265 268 269 271 273 277 281 284 287 289
215 217 221 223 225 228 228 228 230 231 233 237 237 237 237 238 239 242 243 240 238 238 239 240 240 240 239 239 239 240 240 238 237 238 238 238 238 239 238 235 235 238 239 234 232 233 232 230 230 226 220 217 218 219 219 219 219 219 220 221 222 223 224 225 227 227 228 232 235 236 239 242 246 251 256 261 266 269 271 272 275 278 282 286 289 292
216 216 219 221 223 225 226 226 228 232 235 238 238 237 237 237 238 241 244 243 240 238 238 239 240 239 239 240 240 239 240 239 238 239 238 237 237 236 235 234 234 236 236 231 228 230 230 228 227 225 221 218 218 219 220 220 219 219 221 222 222 223 225 225 227 228 229 233 236 237 239 243 247 252 257 262 266 270 272 274 277 280 284 288 291 294
217 217 219 221 222 223 226 228 231 236 237 235 236 237 236 237 238 239 243 245 242 240 239 239 240 240 238 239 239 238 239 239 238 237 236 235 235 235 235 234 234 234 233 231 229 228 226 225 225 224 222 219 218 220 221 220 220 219 221 221 221 223 225 226 228 229 231 233 236 238 241 245 249 253 258 262 265 269 273 276 279 282 285 289 292 294
219 219 220 221 222 223 226 230 231 233 234 230 231 235 236 239 242 243 247 246 243 242 242 239 239 240 239 238 237 237 238 238 237 235 233 232 233 234 233 232 232 232 232 230 228 225 223 224 225 223 222 220 219 220 221 220 220 220 221 222 222 224 226 228 229 230 232 234 237 240 243 247 251 255 258 262 266 269 273 276 279 282 285 289 292 295
220 220 220 221 222 221 224 227 229 231 232 229 229 236 241 244 245 244 246 246 242 241 244 242 239 238 238 238 237 235 235 237 237 235 233 233 234 233 232 231 229 229 229 228 226 223 222 224 224 222 221 221 220 219 220 220 220 221 222 223 224 225 227 229 229 231 233 235 238 242 246 249 252 255 258 262 266 270 274 277 280 282 286 290 294 297
218 218 218 220 221 221 223 227 230 232 233 228 227 234 238 242 242 238 240 244 244 243 246 247 244 240 237 237 237 236 235 237 237 237 238 237 234 230 230 229 226 225 226 226 225 222 221 222 223 221 221 221 219 218 219 221 222 222 223 224 225 227 228 229 230 231 233 236 240 244 247 250 252 255 260 264 268 272 275 278 281 283 287 292 295 297
215 216 217 220 221 221 224 228 231 234 233 227 228 234 235 236 238 236 236 242 247 248 249 249 248 244 239 237 238 238 238 238 236 237 238 235 229 226 227 225 222 222 224 224 223 221 220 221 222 222 222 221 220 219 219 221 222 223 224 225 226 228 230 230 230 232 234 237 241 244 247 250 253 256 262 267 270 273 276 279 281 284 288 292 295 297
213 215 217 219 221 222 224 228 232 234 231 227 229 232 233 235 237 238 240 246 250 252 251 249 247 246 243 242 241 239 238 236 235 235 234 230 226 225 225 222 219 220 222 222 221 219 220 221 222 223 223 221 220 220 220 220 221 222 224 226 227 228 230 230 230 232 235 237 240 243 246 251 256 261 266 271 273 276 278 280 282 284 286 289 292 295
212 214 217 218 220 221 223 227 231 232 228 226 228 230 231 236 240 244 249 253 252 253 253 249 246 244 242 241 241 239 236 233 231 232 232 228 225 224 223 220 218 219 219 219 220 220 221 222 222 222 221 220 219 220 220 219 219 221 224 225 227 228 230 230 231 233 234 236 239 244 250 256 262 267 272 276 278 279 280 281 283 284 285 288 290 292
211 214 218 218 218 220 223 225 229 229 226 224 228 233 234 238 244 249 253 253 252 250 249 247 246 245 242 239 236 234 231 227 225 227 227 225 222 220 220 219 218 219 219 220 220 220 220 220 220 220 220 220 220 220 220 218 218 220 222 224 226 228 229 229 230 232 234 238 244 250 256 262 266 270 275 279 280 281 282 283 284 285 286 287 288 288
211 215 217 216 216 220 223 224 224 225 223 223 228 235 236 238 243 248 249 250 250 249 248 246 246 245 241 236 231 227 225 223 223 223 222 221 218 217 217 217 218 220 220 219 218 217 217 217 217 217 218 218 219 219 219 218 218 220 222 225 226 227 228 229 231 234 239 245 251 256 261 267 270 271 275 279 281 283 284 285 285 286 286 286 285 285
213 215 213 211 212 215 219 219 220 222 223 223 228 234 236 237 241 246 248 247 246 249 250 246 243 240 235 230 226 223 223 222 222 221 220 218 216 215 215 216 217 218 218 217 215 214 214 213 213 214 214 215 216 217 216 216 217 220 223 224 225 227 229 232 235 240 244 249 255 259 263 268 271 273 276 280 282 284 285 285 285 286 285 283 282 282
213 215 213 210 212 215 218 219 219 219 219 219 222 229 234 235 238 241 245 245 243 243 245 242 236 230 226 222 218 215 215 216 216 215 214 212 211 211 212 213 214 214 213 212 211 210 209 209 209 209 210 210 211 212 213 215 217 220 222 223 225 227 230 234 239 244 248 252 256 260 264 268 270 273 277 280 282 283 284 285 285 284 282 281 281 281
211 215 214 214 216 217 216 216 215 216 219 221 223 228 232 231 229 229 232 236 234 231 229 228 225 221 216 213 210 207 205 206 207 206 205 205 205 207 210 212 211 210 208 205 205 205 204 205 205 206 207 209 210 211 213 215 218 219 221 224 227 230 234 239 243 248 251 254 256 261 265 269 271 274 276 279 281 282 283 283 283 281 281 281 280 279
209 211 212 215 218 217 215 214 215 217 220 223 227 230 229 224 218 214 215 217 217 215 212 209 209 208 204 201 201 199 198 200 201 200 200 202 203 204 206 207 206 204 202 200 200 200 200 201 202 202 205 208 210 210 212 214 217 220 223 227 231 236 239 243 246 249 251 255 259 263 267 269 271 273 275 277 280 282 283 283 282 280 280 281 281 280
206 207 208 211 214 216 218 217 217 218 219 220 222 224 223 221 218 214 211 212 212 211 209 207 207 208 205 201 200 199 198 197 196 194 194 195 196 197 197 197 195 195 194 193 193 194 195 197 199 200 203 207 210 212 214 217 221 226 229 233 238 242 243 243 246 249 253 256 260 263 265 267 269 271 274 277 279 279 280 281 282 282 281 280 280 280
206 205 207 207 207 213 218 213 210 214 216 216 217 220 221 220 214 208 206 208 207 206 204 203 205 207 206 203 199 196 194 192 191 190 189 189 191 192 191 191 191 191 192 193 195 196 197 200 203 206 209 213 216 218 221 224 228 233 236 239 243 245 243 244 248 252 254 257 260 262 263 265 268 270 274 276 276 275 275 278 281 282 283 282 279 279